Location: Cerro Villa Heights
(33.8267°N, 117.8042°W)
Time: 23:56:02
(UTC+00:00)

USA 229 DEB - Pass Details

Date: 05 August 2024
Orbit: 881 x 1330 km, 63.4° (Epoch: 31 August)

Event Time Altitude Azimuth Distance (km) Brightness Sun altitude
Rises 12:03:40 0° 328° (NNW) 4,075 6.7 -12.6°
Reaches altitude 10° 12:06:19 10° 328° (NNW) 3,165 6.2 -12.1°
Maximum altitude 12:14:05 85° 241° (WSW) 1,296 4.1 -10.7°
Drops below altitude 10° 12:22:20 10° 154° (SSE) 3,351 6.3 -9.2°
Sets 12:25:13 0° 154° (SSE) 4,324 6.9 -8.7°
